Weather History for Clinton-Sherman, OK

Change the Weather History Date:

Sunday, September 2, 2012

  Actual Average Record
Temperature  
Mean Temperature 88 °F -  
Max Temperature 102 °F 90 °F 105 °F (2000)
Min Temperature 75 °F 66 °F 59 °F (2006)
Cooling Degree Days 24    
Growing Degree Days 38 (Base 50)    
Moisture  
Dew Point 57 °F    
Average Humidity 38    
Maximum Humidity 60    
Minimum Humidity 18    
Precipitation  
Precipitation 0.00 in - - ()
Sea Level Pressure  
Sea Level Pressure 29.88 in    
Wind  
Wind Speed 11 mph (SSW)    
Max Wind Speed 15 mph    
Max Gust Speed 26 mph    
Visibility 10 miles    
Events      
Averages and records for this station are not official NWS values.
T = Trace of Precipitation, MM = Missing Value Source: NWS Daily Summary

Daily Weather History Graph

Daily Weather History Graph

Search for Another Location

Airport:

Trip Planner

Search our weather history database for the weather conditions in past years. The results will help you decide how hot, cold, wet, or windy it might be!

Date:

Astronomy

Sep. 02, 2012 Rise Set
Actual Time 7:10 AM CDT 8:01 PM CDT
Civil Twilight 6:44 AM CDT 8:27 PM CDT
Nautical Twilight 6:13 AM CDT 8:58 PM CDT
Astronomical Twilight 5:42 AM CDT 9:29 PM CDT
Moon 8:58 PM CDT (9/2) 9:13 AM CDT (9/2)
Length of Visible Light 13h 43m
Length of Day
12h 51m
Waning Gibbous, 95% of the Moon is Illuminated
Sep 2
Waning Gibbous
Sep 8
Last Quarter
Sep 15
New
Sep 22
First Quarter
Sep 29
Full

Hourly Weather History & Observations

Time (CDT) Temp. Heat Index Dew Point Humidity Pressure Visibility Wind Dir Wind Speed Gust Speed Precip Events Conditions
12:53 AM 79.0 °F - 53.1 °F 40% 29.90 in 10.0 mi South 9.2 mph - N/A   Clear
1:53 AM 77.0 °F - 55.0 °F 47% 29.90 in 10.0 mi SSW 9.2 mph - N/A   Clear
2:53 AM 79.0 °F - 60.1 °F 52% 29.90 in 10.0 mi SSW 13.8 mph - N/A   Clear
3:53 AM 79.0 °F - 60.1 °F 52% 29.90 in 10.0 mi SSW 11.5 mph - N/A   Clear
4:53 AM 78.1 °F - 60.1 °F 54% 29.89 in 10.0 mi SSW 10.4 mph - N/A   Clear
5:53 AM 77.0 °F - 60.1 °F 56% 29.90 in 10.0 mi SSW 9.2 mph - N/A   Clear
6:53 AM 75.0 °F - 60.1 °F 60% 29.91 in 10.0 mi SSW 8.1 mph - N/A   Clear
7:53 AM 77.0 °F - 61.0 °F 58% 29.93 in 10.0 mi SSW 8.1 mph - N/A   Clear
8:53 AM 82.0 °F 82.4 °F 60.1 °F 47% 29.94 in 10.0 mi SW 11.5 mph - N/A   Clear
9:53 AM 87.1 °F 87.0 °F 61.0 °F 41% 29.94 in 10.0 mi SW 12.7 mph - N/A   Clear
10:53 AM 93.0 °F 92.3 °F 59.0 °F 32% 29.94 in 10.0 mi SW 13.8 mph - N/A   Partly Cloudy
11:53 AM 97.0 °F 96.5 °F 59.0 °F 28% 29.93 in 10.0 mi SW 12.7 mph - N/A   Clear
12:53 PM 99.0 °F 98.1 °F 57.9 °F 25% 29.91 in 10.0 mi SW 11.5 mph 16.1 mph N/A   Clear
1:53 PM 99.0 °F - 52.0 °F 21% 29.89 in 10.0 mi SSW 12.7 mph 23.0 mph N/A   Partly Cloudy
2:53 PM 102.0 °F 99.7 °F 53.1 °F 19% 29.87 in 10.0 mi Variable 6.9 mph 17.3 mph N/A   Clear
3:53 PM 102.9 °F - 52.0 °F 18% 29.84 in 10.0 mi SSW 11.5 mph 23.0 mph N/A   Clear
4:53 PM 102.0 °F 99.7 °F 53.1 °F 19% 29.83 in 10.0 mi SSW 15.0 mph 20.7 mph N/A   Scattered Clouds
5:53 PM 100.9 °F 99.1 °F 54.0 °F 21% 29.83 in 10.0 mi South 13.8 mph - N/A   Clear
6:53 PM 98.1 °F 96.1 °F 54.0 °F 23% 29.83 in 10.0 mi SSW 12.7 mph 26.5 mph N/A   Clear
7:53 PM 91.9 °F 90.0 °F 55.0 °F 29% 29.83 in 10.0 mi SSW 8.1 mph - N/A   Clear
8:53 PM 86.0 °F 84.9 °F 57.0 °F 37% 29.85 in 10.0 mi South 9.2 mph - N/A   Clear
9:53 PM 82.0 °F 82.0 °F 57.9 °F 44% 29.86 in 10.0 mi SSE 8.1 mph - N/A   Clear
10:53 PM 84.9 °F 84.8 °F 60.1 °F 43% 29.86 in 10.0 mi South 10.4 mph - N/A   Clear
11:53 PM 84.0 °F 84.0 °F 60.1 °F 44% 29.86 in 10.0 mi South 11.5 mph - N/A   Clear